アトラス彗星

C/2019 L3 ( ATLAS )

English version
Home page
Updated on January 4, 2024

---------------------------------------------------------------------

・ プロフィール

発見日 2019年6月10日
発見光度 18.1等
発見者 Asteroid Terrestrial-Impact Last Alert System (ATLAS) search program

・ 写真集

・ 軌道要素

Epoch 2023 Feb. 25.0 TT = JDT 2460000.5
T 2022 Jan.  9.64926 TT                                 Rudenko
q   3.5544196            (2000.0)            P               Q
z  -0.0005754      Peri.  171.61732     -0.26040741     -0.66641987
 +/-0.0000001      Node   290.77988     +0.83684012     +0.20510112
e   1.0020453      Incl.   48.35090     +0.48154604     -0.71681105
>From 6012 observations 2019 June 10-2023 Feb. 24, mean residual 0".4.

・ 星図

・ 光度変化

        m1 = -2.5 + 5 logΔ + 17.0 log r(t - 100)  [ ,0]  (              〜2022年 1月 9日)
        m1 =  0.0 + 5 logΔ + 12.5 log r(t - 120)  [0, ]  (2022年 1月 9日〜              )

---------------------------------------------------------------------

軌道要素はM.P.E.C. 2023-D72に掲載されたものです。
星図はステラナビゲータ Ver.10 (アストロアーツ) で作成したものです。
光度グラフはComet for Windowsで作成したものです。

---------------------------------------------------------------------

Copyright(C) Seiichi Yoshida (comet@aerith.net). All rights reserved.